Flight Track Log - Related Links

Times and Time Zones

All times are in EDT time to prevent confusion due to time zone crossing. See the SWA2058 flight status page for this flight to view local times or setup timezone preferences in your user account.

Time Position Orientation Groundspeed Altitude Reporting Facility
EDT Latitude Longitude Course Direction KTS MPH feet Rate Location/Type
Sat 10:20:44 AM 36.0764 -115.1878 264° West 172 198 4,000  Level Los Angeles Center
Sat 10:21:14 AM 36.0728 -115.2331 264° West 207 238 5,500 2,656 Climbing Los Angeles Center
Sat 10:21:45 AM 36.0603 -115.2578 238° Southwest 212 244 6,700 3,100 Climbing Los Angeles Center
Sat 10:22:14 AM 36.0158 -115.2783 201° Southwest 262 302 8,600 3,387 Climbing Los Angeles Center
Sat 10:22:47 AM 35.9906 -115.2922 204° Southwest 262 302 10,200 3,541 Climbing Los Angeles Center
Sat 10:23:15 AM 35.9331 -115.3056 191° South 314 361 12,200 3,639 Climbing Los Angeles Center
Sat 10:23:48 AM 35.8803 -115.3114 185° South 333 383 13,900 3,222 Climbing Los Angeles Center
Sat 10:24:09 AM 35.8508 -115.3139 184° South 357 411 15,100 3,738 Climbing Los Angeles Center
Sat 10:24:49 AM 35.7786 -115.3069 176° South 360 414 17,700 2,353 Climbing Los Angeles Center
Sat 10:25:51 AM 35.6711 -115.2928 174° South 378 435 19,100 2,293 Climbing Los Angeles Center
Sat 10:26:52 AM 35.5597 -115.2992 183° South 396 456 22,400 2,878 Climbing Los Angeles Center
Sat 10:27:54 AM 35.4492 -115.3258 191° South 405 466 25,000 2,683 Climbing Los Angeles Center
Sat 10:28:55 AM 35.3408 -115.3619 195° South 405 466 27,900 1,463 Climbing Los Angeles Center
Sat 10:29:57 AM 35.2331 -115.3956 194° South 400 460 28,000 49 Climbing Los Angeles Center
Sat 10:30:58 AM 35.1167 -115.4336 195° South 400 460 28,000  Level Los Angeles Center
Sat 10:32:00 AM 35.0094 -115.4686 195° South 399 459 28,000  Level Los Angeles Center
Sat 10:33:01 AM 34.9117 -115.5008 195° South 396 456 28,000  Level Los Angeles Center
Sat 10:34:03 AM 34.7814 -115.5408 194° South 400 460 28,000  Level Los Angeles Center
Sat 10:35:04 AM 34.6875 -115.5728 196° South 400 460 28,000  Level Los Angeles Center
Sat 10:36:05 AM 34.5794 -115.6067 194° South 400 460 28,000  Level Los Angeles Center
Sat 10:37:07 AM 34.4711 -115.6400 194° South 399 459 28,000  Level Los Angeles Center
Sat 10:38:08 AM 34.3433 -115.6814 195° South 400 460 28,000  Level Los Angeles Center
Sat 10:39:10 AM 34.2364 -115.7153 195° South 398 458 28,000 -390 Level Los Angeles Center
Sat 10:40:11 AM 34.1278 -115.7511 195° South 403 464 27,200 -885 Descending Los Angeles Center
Sat 10:41:12 AM 34.0178 -115.7844 194° South 408 470 26,200 -976 Descending Los Angeles Center
Sat 10:42:14 AM 33.9078 -115.8197 195° South 407 468 25,200 -976 Descending Los Angeles Center
Sat 10:43:15 AM 33.8000 -115.8544 195° South 404 465 24,200 -590 Descending Los Angeles Center
Sat 10:44:16 AM 33.6925 -115.8878 194° South 400 460 24,000 -98 Descending Los Angeles Center
Sat 10:45:18 AM 33.5853 -115.9206 194° South 398 458 24,000 -49 Level Los Angeles Center
Sat 10:46:19 AM 33.4692 -115.9889 206° Southwest 392 451 23,900 -927 Descending Los Angeles Center
Sat 10:47:21 AM 33.3897 -116.0675 220° Southwest 376 433 22,100 -1,854 Descending Los Angeles Center
Sat 10:48:22 AM 33.3136 -116.1425 219° Southwest 364 419 20,100 -1,918 Descending Los Angeles Center
Sat 10:49:23 AM 33.2381 -116.2164 219° Southwest 354 407 18,200 -1,902 Descending Los Angeles Center
Sat 10:50:25 AM 33.1631 -116.2900 219° Southwest 351 404 16,200 -2,000 Descending Los Angeles Center
Sat 10:51:26 AM 33.0889 -116.3631 220° Southwest 349 402 14,100 -2,000 Descending Los Angeles Center
Sat 10:52:28 AM 33.0139 -116.4358 219° Southwest 338 389 12,100 -1,024 Descending Los Angeles Center
Sat 10:53:29 AM 32.9331 -116.4867 208° Southwest 331 381 12,000 -829 Descending Los Angeles Center
Sat 10:54:31 AM 32.8444 -116.5419 208° Southwest 333 383 10,400 -1,317 Descending Los Angeles Center
Sat 10:55:32 AM 32.7997 -116.6242 237° Southwest 307 353 9,300 -1,073 Descending Los Angeles Center
Sat 10:56:34 AM 32.7647 -116.6972 240° Southwest 270 311 8,200 -1,122 Descending Los Angeles Center
Sat 10:57:35 AM 32.7328 -116.7647 241° Southwest 244 281 7,000 -927 Descending Los Angeles Center
Sat 10:58:37 AM 32.7061 -116.8206 240° Southwest 207 238 6,300 -878 Descending Los Angeles Center
Sat 10:59:38 AM 32.6856 -116.8869 250° West 182 209 5,200 -1,024 Descending Los Angeles Center
Sat 11:00:40 AM 32.6717 -116.9406 253° West 175 201 4,200 -900 Descending Los Angeles Center
Sat 11:01:38 AM 32.6833 -116.9833 288° West 160 184 3,400 -911 Descending Southern California TRACON
Sat 11:02:32 AM 32.7000 -117.0333 292° West 173 199 2,500 -947 Descending Southern California TRACON
Sat 11:03:32 AM 32.7167 -117.1000 287° West 166 191 1,600 -850 Descending Southern California TRACON
Sat 11:04:32 AM 32.7167 -117.1333 270° West 138 159 800 -574 Descending Southern California TRACON
Sat 11:05:48 AM 32.7353 -117.1883 292° West 146 168 300 -395 Descending Los Angeles Center
Sat 11:07:00 AM 32.7333 -117.1833 281° West  Level FlightAware Approximate
Sat 11:14:00 AM 32.7336 -117.1897 281° West  Level Estimated

Login

Don't have an account? Register now (free) for customized features, flight alerts, and more!